www.pogodaiklimat.ru

Погода и климат >> Архив погоды >> Россия >> Сахалинская область >> Северо-Курильск


АРХИВ ПОГОДЫ в Северо-Курильске

Время (UTC), дата Ветер
(напр.,м/с)
 
Видим.   Явления Облачность Т
(С)
Тd
(С)
f
(%)
Тe
(С)
Тes
(С)
Комфортность P
(гПа)
Po
(гПа)
Тmin
(С)
Tmax
(С)
R
(мм)
R24
(мм)
S
(см)
12 11.08 З 1-2
{2}
4000 м ясно +9.5 +8.4 93 +9 +9 по сезону 1006.8 1003.9
15 11.08 ЮЗ 1-1
{2}
4000 м ясно +7.6 +6.8 95 +7 +7 по сезону 1006.6 1003.7
18 11.08 СЗ 1-2
{3}
4000 м 1/0
[Ac trans]
+6.5 +5.8 95 +5 +5 прохладно 1006.6 1003.7
21 11.08 В 1-2
{3}
200 м туман ?/? +9.0 +8.3 95 +8 +8 прохладно 1006.8 1003.9 +5.6
00 12.08 В 1-3
{3}
1000 м туман местами 3/0
[Cc]
+11.5 +9.4 87 +11 +25 опасность
простуды
1006.6 1003.7
03 12.08 В 1-3
{5}
50 км 6/1 1000 м
[Sc Ci fib]
+13.4 +9.7 78 +14 +26 опасность
простуды
1005.7 1002.9
06 12.08 В 1-3
{5}
9000 м туман на расстоянии 8/0
[Cc]
+13.5 +9.5 77 +14 +18 по сезону 1005.6 1002.7
09 12.08 штиль 0
{3}
25 км 9/1 200 м
[St Cc]
+10.5 +8.8 89 +10 +10 по сезону 1005.7 1002.8 +15.4
12 12.08 З 1-2
{2}
4000 м 9/0
[Cc]
+8.6 +8.2 97 +8 +8 по сезону 1005.9 1003.0
15 12.08 СЗ 1-2
{2}
4000 м дымка 8/0
[Ci fib]
+8.1 +7.8 98 +7 +7 по сезону 1004.9 1002.0
18 12.08 штиль 0
{2}
1000 м туман на расстоянии 9/0
[Ac trans Cc]
+7.7 +7.5 99 +7 +7 по сезону 1004.6 1001.7
21 12.08 ЮВ 1-3
{4}
5000 м туман на расстоянии 9/0
[Cc]
+10.6 +10.0 96 +10 +14 по сезону 1004.0 1001.1 +7.7
00 13.08 СВ 1-2
{5}
9000 м дымка 9/3 1000 м
[Sc Ac lent Cc]
+12.9 +10.8 87 +13 +19 по сезону 1004.1 1001.3
03 13.08 СЗ 6-10
{10}
26 км 9/5 600 м
[Cu Sc Ac lent Cc]
+15.0 +11.4 79 +13 +15 по сезону 1003.8 1001.0
06 13.08 СЗ 6-10
{12}
4300 м туман на расстоянии 9/6 200 м
[St Ac lent Cc]
+13.9 +10.5 80 +12 +12 по сезону 1004.5 1001.6
09 13.08 С 4-9
{10}
3800 м туман на расстоянии 10/3 1000 м
[Sc Ac lent Ci fib]
+16.5 +7.8 56 +16 +16 тепло 1004.7 1001.9 +16.9
12 13.08 ЮВ 4-6
{9}
4000 м 10/0
[Ac lent Cs]
+12.9 +8.7 76 +11 +11 по сезону 1005.7 1002.8
15 13.08 ЮВ 1-3
{7}
4000 м 10/0
[Ac lent Cs]
+11.4 +8.8 84 +11 +11 по сезону 1006.3 1003.4
18 13.08 З 1-1
{4}
4000 м 10/3 1000 м
[Sc Ac lent Cs]
+9.9 +9.5 97 +9 +9 по сезону 1007.7 1004.8
21 13.08 Ю 1-2
{2}
4100 м туман на расстоянии 10/6 100 м
[St Ac As]
+11.7 +10.7 94 +11 +12 по сезону 1008.5 1005.6 +9.3
00 14.08 ЮВ 3-4
{4}
24 км 9/0
[Ac As]
+13.3 +11.6 89 +12 +16 по сезону 1009.0 1006.1
03 14.08 С 3-6
{8}
22 км 9/3 300 м
[St Ac As Cs]
+14.4 +10.6 78 +13 +18 по сезону 1009.1 1006.3
06 14.08 В 1-3
{8}
21 км 9/3 600 м
[Sc Ac As]
+14.1 +10.5 79 +14 +16 по сезону 1009.5 1006.6
09 14.08 Ю 1-1
{4}
25 км 9/1 300 м
[St Ac As Cs]
+11.3 +9.4 88 +11 +11 по сезону 1010.6 1007.7 +14.7
12 14.08 ЮЗ 1-2
{3}
4000 м 9/0
[Cs]
+9.3 +9.3 100 +8 +8 по сезону 1011.7 1008.8
15 14.08 ЮВ 1-2
{4}
4000 м 9/0
[Cs]
+10.3 +9.5 95 +10 +10 по сезону 1012.4 1009.5
18 14.08 С 2-3
{8}
4000 м 9/8 300 м
[St Ac As]
+11.1 +10.6 97 +10 +10 по сезону 1012.6 1009.7
21 14.08 Ю 2-3
{4}
7000 м туман на расстоянии 10/10 300 м
[St]
+12.1 +11.1 94 +11 +11 по сезону 1013.9 1011.0 +8.4
00 15.08 ЮВ 1-3
{5}
6000 м туман на расстоянии 9/6 600 м
[Sc Ac lent Cc]
+14.9 +11.8 82 +15 +19 тепло 1013.8 1010.9
03 15.08 С 5-8
{13}
8000 м туман на расстоянии 8/8 600 м
[Cu Sc]
+17.1 +11.7 71 +16 +18 тепло 1012.6 1009.8
06 15.08 С 3-5
{9}
40 км ясно +15.8 +10.9 73 +15 +19 тепло 1012.2 1009.4
09 15.08 ЮВ 1-3
{5}
30 км 3/3 1000 м
[Sc Ci fib]
+10.4 +9.5 94 +10 +10 по сезону 1012.5 1009.6 +17.2
12 15.08 ЮЗ 2-3
{3}
4000 м ясно +9.6 +9.0 96 +8 +8 по сезону 1012.3 1009.4
15 15.08 ЮЗ 1-2
{3}
4000 м ясно +7.9 +7.5 97 +7 +7 по сезону 1011.0 1008.1
18 15.08 ЮЗ 1-2
{3}
4000 м ясно +7.7 +7.7 100 +7 +7 по сезону 1009.9 1007.0
21 15.08 Ю 2-3
{3}
28 км 1/1 1000 м
[Sc]
+12.4 +10.1 86 +11 +15 по сезону 1008.6 1005.7 +6.8
00 16.08 С 4-9
{12}
28 км 3/3 1000 м
[Cu Sc Ac lent]
+18.7 +9.3 54 +19 +25 тепло 1006.6 1003.8
03 16.08 З 6-13
{13}
30 км 3/3 1000 м
[Cu Sc]
+21.0 +9.4 47 +22 +26 комфорт 1004.9 1002.1
06 16.08 СЗ 4-7
{15}
26 км 1/1 300 м
[St]
+20.9 +7.3 41 +22 +25 комфорт 1003.7 1000.9
09 16.08 ЮЗ 3-9
{13}
17 км 1/1 200 м
[St]
+13.8 +9.1 73 +13 +13 тепло 1004.0 1001.1 +22.0
12 16.08 Ю 2-3
{10}
4000 м ясно +11.6 +7.3 75 +11 +11 по сезону 1003.8 1000.9
15 16.08 Ю 2-3
{5}
4000 м 5/0
[Ac trans Ci fib]
+9.9 +9.4 97 +8 +8 по сезону 1003.8 1000.9
18 16.08 З 1-1
{5}
4000 м 9/9 1000 м
[Sc]
+11.0 +10.2 95 +11 +11 по сезону 1004.5 1001.6
21 16.08 В 3-4
{4}
4100 м туман на расстоянии 10/10 100 м
[St]
+10.4 +10.4 100 +8 +8 прохладно 1005.1 1002.2 +9.0 0.0
00 17.08 В 3-4
{4}
1000 м туман местами 9/8 100 м
[St Ac lent Ci fib]
+12.0 +11.3 95 +10 +12 прохладно 1004.9 1002.0
03 17.08 В 5-8
{7}
7000 м дымка {туман} 9/6 100 м
[St Ci fib]
+12.6 +11.4 92 +10 +12 по сезону 1005.3 1002.5
06 17.08 В 2-3
{8}
26 км {туман} 10/8 100 м
[St Ac lent]
+11.6 +11.0 96 +10 +11 по сезону 1006.6 1003.7
09 17.08 ЮВ 1-2
{5}
22 км 8/4 1000 м
[Sc Ac lent]
+12.9 +8.5 75 +13 +13 тепло 1007.1 1004.2 +15.6
12 17.08 Ю 1-2
{5}
4000 м 10/4 1000 м
[Sc Ac trans Ci fib]
+12.5 +8.4 76 +13 +13 тепло 1008.3 1005.4
15 17.08 С 2-4
{4}
4000 м 10/5 1000 м
[Sc Ac lent]
+11.6 +8.3 80 +11 +11 по сезону 1008.8 1005.9
18 17.08 С 5-10
{9}
4000 м 9/8 1000 м
[Sc Ci fib]
+12.4 +9.0 80 +10 +10 по сезону 1009.1 1006.2
21 17.08 С 1-1
{10}
26 км 10/10 200 м
[St]
+12.6 +9.8 83 +13 +13 тепло 1011.0 1008.1 +11.5
00 18.08 В 1-3
{4}
50 км 9/9 600 м
[Cu Sc]
+14.8 +10.3 74 +15 +17 тепло 1012.3 1009.4
03 18.08 СВ 3-9
{7}
50 км 8/8 1000 м
[Sc]
+15.3 +9.7 69 +15 +17 тепло 1013.2 1010.4
06 18.08 СВ 4-9
{10}
45 км 9/9 1000 м
[Sc]
+13.7 +8.9 73 +12 +13 по сезону 1014.6 1011.7

 

Местоположение метеостанции Северо-Курильск (Сахалинская область, Россия): широта 50.68 долгота 156.10 высота над уровнем моря 23 м.

В архиве по умолчанию представлена погода в Северо-Курильске за последнюю неделю. Архивные данные за месяц целиком и за предыдущие месяцы, начиная с января 2011 года, Вы можете получить, выбрав интересующий диапазон дат из раскрывающегося списка и нажав кнопку "Ввод!".


*Определитесь, кто Вы:
робот инопланетянин человек

Внимание! Время в таблицах - всемирное. Для получения местного времени необходимо прибавить поправку, которая равна 12 ч.

Смотрите также архив погоды в соседних городах и на ближайших метеорологических станциях:

Погода на Мысе Лопатка (Камчатский край, Россия) (41 км)
Погода в Озерной (Камчатский край, Россия) (91 км)
Погода в Водопадной (Камчатский край, Россия) (183 км)
Погода в Большерецке (Камчатский край, Россия) (240 км)
Погода в Начиках (Камчатский край, Россия) (293 км)
Погода в Петропавловск-Камчатском (Камчатский край, Россия) (298 км)
Погода в Петропавловском Маяке (Камчатский край, Россия) (303 км)
Погода в Сосновке (Камчатский край, Россия) (307 км)
Погода в Петропавловск-Камч. 2 (Камчатский край, Россия) (314 км)
Погода в Соболево (Камчатский край, Россия) (403 км)

Пояснения к столбцам:

Ветер - указаны скорость ветра в м/с - средняя за 10 мин, порывы в срок и между сроками (в фигурных скобках) и направление, откуда дует ветер: С - северный, СВ - северо-восточный, В - восточный, ЮВ - юго-восточный, Ю - южный, ЮЗ - юго-западный, З - западный, СЗ - северо-западный.
Видимость - горизонтальная дальность видимости в метрах или километрах. При видимости от 1 до 10 км при отсутствии осадков обычно наблюдается дымка, при ухудшении видимости до 1 км и менее - туман. В сухую погоду видимость может ухудшаться дымом, пылью или мглою.
Явления - указаны атмосферные явления, наблюдавшиеся в срок или в последний час перед сроком; фигурными скобками обозначены явления, наблюдавшиеся между сроками (за 1-3 часа до срока); квадратными скобками обозначены град или гололедные отложения с указанием их диаметра в мм.
Облачность - указаны через наклонную черту общая и нижняя облачность в баллах и высота нижней границы облаков в метрах; квадратными скобками обозначены формы облаков: Ci - перистые, Cs - перисто-слоистые, Cc - перисто-кучевые, Ac - высококучевые, As - высокослоистые, Sc - слоисто-кучевые, Ns - слоисто-дождевые, Cu - кучевые, Cb - кучево-дождевые. Подробнее классификацию облаков см. в Атласе облаков (PDF).
T - Температура воздуха - температура, измеренная на высоте 2 м над землей.
Td - Температура точки росы - температура, при понижении до которой содержащийся в воздухе водяной пар достигнет насыщения.
f - Относительная влажность воздуха - влажноcть воздуха, измеренная на высоте 2 м над землей.
Te - Эффективная температура - температура, которую ощущает одетый по сезону человек в тени. Характеристика душности погоды. При расчете учитывается влияние влажности воздуха и скорости ветра на теплоощущения человека.
Tes - Эффективная температура на солнце - температура, которую ощущает человек, с поправкой на солнечный нагрев. Характеристика знойности погоды. Зависит от высоты солнца над горизонтом, облачности и скорости ветра. Ночью, в пасмурную погоду, а также при ветре 12 м/с и более поправка равна нулю.
P - Атмосферное давление - приведенное к уровню моря атмосферное давление.
Po - Атмосферное давление - измеренное на уровне метеостанции атмосферное давление.
Tmin - Минимальная температура - минимум температуры воздуха на высоте 2 м над землей.
Tmax - Максимальная температура - максимум температуры воздуха на высоте 2 м над землей.
R - Количество осадков - Количество выпавших осадков за период времени, мм. При наведении курсора мыши на число - период времени, за который выпало указанное количество осадков.
R24 - Количество осадков - Количество выпавших осадков за 24 часа, мм.
S - Снежный покров - Высота снежного покрова, см. При наведении курсора мыши на число - состояние снежного покрова и степень покрытия местности в баллах.